| time (UTC) | temp F | wind direction | speed MPH | gust MPH | rain 1hr in | rain 24hr in | rain mn in | humidity % | barometer mb |
| 20260831071546 | 78 | 0 | 0.0 | 0.0 | 0.00 | 0.00 | 0.00 | 92 | 1015.0 |
| 20260831070041 | 78 | 0 | 0.0 | 0.0 | 0.00 | 0.00 | 0.00 | 91 | 1015.1 |
| 20260831064548 | 78 | 60 | 0.0 | 2.0 | 0.00 | 0.00 | 0.00 | 91 | 1015.1 |
| 20260831063104 | 78 | 0 | 0.0 | 0.0 | 0.00 | 0.00 | 0.00 | 91 | 1015.3 |
| 20260831061546 | 79 | 0 | 0.0 | 0.0 | 0.00 | 0.00 | 0.00 | 91 | 1015.4 |
| 20260831060040 | 79 | 0 | 0.0 | 0.0 | 0.00 | 0.00 | 0.00 | 90 | 1015.3 |
| 20260831054539 | 79 | 0 | 0.0 | 0.0 | 0.00 | 0.00 | 0.00 | 89 | 1015.4 |
| 20260831053102 | 80 | 0 | 0.0 | 0.0 | 0.00 | 0.00 | 0.00 | 89 | 1015.5 |
| 20260831051542 | 80 | 93 | 0.0 | 2.0 | 0.00 | 0.00 | 0.00 | 88 | 1015.4 |
| 20260831050042 | 80 | 0 | 0.0 | 3.0 | 0.00 | 0.00 | 0.00 | 87 | 1015.5 |
| 20260831044637 | 81 | 0 | 0.0 | 3.0 | 0.00 | 0.00 | 0.00 | 87 | 1015.6 |
| 20260831043047 | 81 | 0 | 1.0 | 8.0 | 0.00 | 0.00 | 0.00 | 86 | 1015.7 |
| 20260831041550 | 81 | 0 | 1.0 | 7.0 | 0.00 | 0.00 | 0.00 | 86 | 1015.9 |
| 20260831040037 | 81 | 60 | 1.0 | 6.0 | 0.00 | 0.00 | 0.00 | 85 | 1015.9 |
| 20260831034547 | 82 | 113 | 2.0 | 8.0 | 0.00 | 0.00 | 0.00 | 85 | 1015.9 |
| 20260831033053 | 82 | 41 | 2.0 | 7.0 | 0.00 | 0.00 | 0.00 | 84 | 1015.9 |
| 20260831031543 | 83 | 227 | 2.0 | 8.0 | 0.00 | 0.00 | 0.00 | 84 | 1015.7 |
| 20260831030039 | 83 | 113 | 2.0 | 7.0 | 0.00 | 0.00 | 0.00 | 84 | 1015.6 |
| 20260831024540 | 83 | 0 | 2.0 | 7.0 | 0.00 | 0.00 | 0.00 | 84 | 1015.3 |
| 20260831023046 | 84 | 120 | 0.0 | 7.0 | 0.00 | 0.00 | 0.00 | 85 | 1015.2 |
| 20260831021542 | 84 | 97 | 1.0 | 6.0 | 0.00 | 0.00 | 0.00 | 84 | 1014.9 |
| 20260831020040 | 85 | 163 | 1.0 | 5.0 | 0.00 | 0.00 | 0.00 | 82 | 1014.7 |
| 20260831014537 | 85 | 162 | 1.0 | 5.0 | 0.00 | 0.00 | 0.00 | 82 | 1014.6 |
| 20260831013102 | 85 | 0 | 1.0 | 3.0 | 0.00 | 0.00 | 0.00 | 80 | 1014.3 |
| 20260831011550 | 86 | 0 | 1.0 | 3.0 | 0.00 | 0.00 | 0.00 | 79 | 1014.1 |
| 20260831010056 | 86 | 109 | 1.0 | 7.0 | 0.00 | 0.00 | 0.00 | 79 | 1013.9 |
| 20260831004546 | 86 | 55 | 1.0 | 7.0 | 0.00 | 0.00 | 0.00 | 77 | 1013.9 |
| 20260831003047 | 87 | 130 | 3.0 | 11.0 | 0.00 | 0.00 | 0.00 | 76 | 1014.0 |
| 20260831001539 | 87 | 103 | 3.0 | 7.0 | 0.00 | 0.00 | 0.00 | 75 | 1013.8 |
| 20260831000039 | 88 | 184 | 3.0 | 9.0 | 0.00 | 0.00 | 0.00 | 75 | 1013.7 |
| 20260830234549 | 89 | 152 | 1.0 | 10.0 | 0.00 | 0.00 | 0.00 | 73 | 1013.6 |
| 20260830233042 | 90 | 159 | 3.0 | 11.0 | 0.00 | 0.00 | 0.00 | 72 | 1013.4 |
| 20260830231546 | 91 | 185 | 4.0 | 11.0 | 0.00 | 0.00 | 0.00 | 69 | 1013.5 |
| 20260830230046 | 94 | 160 | 5.0 | 14.0 | 0.00 | 0.00 | 0.00 | 64 | 1013.6 |
| 20260830224539 | 94 | 120 | 3.0 | 7.0 | 0.00 | 0.00 | 0.00 | 60 | 1013.6 |
| 20260830223051 | 95 | 5 | 5.0 | 11.0 | 0.00 | 0.00 | 0.00 | 58 | 1013.4 |
| 20260830221546 | 95 | 17 | 4.0 | 11.0 | 0.00 | 0.00 | 0.00 | 57 | 1013.3 |
| 20260830220047 | 94 | 360 | 4.0 | 11.0 | 0.00 | 0.00 | 0.00 | 58 | 1013.3 |
| 20260830214543 | 93 | 116 | 3.0 | 11.0 | 0.00 | 0.00 | 0.00 | 58 | 1013.4 |
| 20260830213101 | 94 | 30 | 5.0 | 13.0 | 0.00 | 0.00 | 0.00 | 56 | 1013.5 |
| 20260830211545 | 95 | 22 | 5.0 | 11.0 | 0.00 | 0.00 | 0.00 | 56 | 1013.5 |
| 20260830210045 | 95 | 360 | 2.0 | 12.0 | 0.00 | 0.00 | 0.00 | 56 | 1013.6 |
| 20260830204542 | 95 | 54 | 2.0 | 11.0 | 0.00 | 0.00 | 0.00 | 55 | 1013.7 |
| 20260830203049 | 96 | 331 | 5.0 | 14.0 | 0.00 | 0.00 | 0.00 | 55 | 1014.0 |
| 20260830201546 | 93 | 58 | 3.0 | 7.0 | 0.00 | 0.00 | 0.00 | 56 | 1014.3 |
| 20260830200046 | 93 | 48 | 5.0 | 13.0 | 0.00 | 0.00 | 0.00 | 56 | 1014.5 |
| 20260830194546 | 95 | 348 | 6.0 | 13.0 | 0.00 | 0.00 | 0.00 | 55 | 1014.5 |
| 20260830193047 | 94 | 175 | 5.0 | 15.0 | 0.00 | 0.00 | 0.00 | 56 | 1014.8 |
| 20260830191546 | 93 | 0 | 4.0 | 12.0 | 0.00 | 0.00 | 0.00 | 57 | 1015.0 |
| 20260830190045 | 95 | 5 | 5.0 | 13.0 | 0.00 | 0.00 | 0.00 | 56 | 1015.2 |
| 20260830184548 | 93 | 161 | 3.0 | 13.0 | 0.00 | 0.00 | 0.00 | 58 | 1015.4 |
| 20260830183047 | 94 | 42 | 6.0 | 15.0 | 0.00 | 0.00 | 0.00 | 56 | 1015.4 |
| 20260830181540 | 94 | 355 | 2.0 | 15.0 | 0.00 | 0.00 | 0.00 | 58 | 1015.6 |
| 20260830180047 | 93 | 340 | 5.0 | 13.0 | 0.00 | 0.00 | 0.00 | 59 | 1016.0 |
| 20260830174543 | 94 | 77 | 3.0 | 12.0 | 0.00 | 0.00 | 0.00 | 58 | 1016.2 |
| 20260830173042 | 92 | 45 | 4.0 | 12.0 | 0.00 | 0.00 | 0.00 | 63 | 1016.4 |
| 20260830171548 | 92 | 18 | 3.0 | 11.0 | 0.00 | 0.00 | 0.00 | 65 | 1016.6 |
| 20260830170047 | 91 | 296 | 1.0 | 11.0 | 0.00 | 0.00 | 0.00 | 65 | 1016.8 |
| 20260830164539 | 91 | 328 | 3.0 | 10.0 | 0.00 | 0.00 | 0.00 | 68 | 1017.0 |
| 20260830163048 | 91 | 33 | 4.0 | 12.0 | 0.00 | 0.00 | 0.00 | 72 | 1017.1 |
| 20260830161601 | 90 | 347 | 5.0 | 10.0 | 0.00 | 0.00 | 0.00 | 74 | 1017.3 |
| 20260830160046 | 89 | 348 | 5.0 | 11.0 | 0.00 | 0.00 | 0.00 | 75 | 1017.3 |
| 20260830154540 | 89 | 40 | 5.0 | 11.0 | 0.00 | 0.00 | 0.00 | 76 | 1017.0 |
| 20260830153039 | 89 | 77 | 1.0 | 11.0 | 0.00 | 0.00 | 0.00 | 80 | 1017.0 |
| 20260830151543 | 88 | 0 | 3.0 | 10.0 | 0.00 | 0.00 | 0.00 | 81 | 1016.9 |
| 20260830150108 | 86 | 20 | 4.0 | 11.0 | 0.00 | 0.00 | 0.00 | 83 | 1016.9 |
| 20260830144547 | 86 | 24 | 5.0 | 9.0 | 0.00 | 0.00 | 0.00 | 84 | 1017.0 |
| 20260830143048 | 85 | 349 | 6.0 | 10.0 | 0.00 | 0.00 | 0.00 | 85 | 1017.0 |
| 20260830141541 | 84 | 337 | 2.0 | 10.0 | 0.00 | 0.00 | 0.00 | 87 | 1016.9 |
| 20260830140042 | 83 | 344 | 2.0 | 6.0 | 0.00 | 0.00 | 0.00 | 88 | 1016.9 |
| 20260830134546 | 82 | 352 | 2.0 | 6.0 | 0.00 | 0.00 | 0.00 | 90 | 1016.9 |
| 20260830133048 | 80 | 348 | 3.0 | 6.0 | 0.00 | 0.00 | 0.00 | 92 | 1016.7 |
| 20260830131541 | 79 | 338 | 2.0 | 5.0 | 0.00 | 0.00 | 0.00 | 93 | 1016.6 |
| 20260830130039 | 78 | 346 | 2.0 | 3.0 | 0.00 | 0.00 | 0.00 | 95 | 1016.7 |
| 20260830124546 | 76 | 34 | 1.0 | 4.0 | 0.00 | 0.00 | 0.00 | 96 | 1016.6 |
| 20260830123045 | 75 | 39 | 1.0 | 3.0 | 0.00 | 0.00 | 0.00 | 97 | 1016.6 |
| 20260830121548 | 75 | 0 | 0.0 | 0.0 | 0.00 | 0.00 | 0.00 | 97 | 1016.3 |
| 20260830120048 | 74 | 0 | 0.0 | 0.0 | 0.00 | 0.00 | 0.00 | 96 | 1016.2 |
| 20260830114603 | 74 | 0 | 0.0 | 0.0 | 0.00 | 0.00 | 0.00 | 96 | 1016.0 |
| 20260830113041 | 75 | 0 | 0.0 | 0.0 | 0.00 | 0.00 | 0.00 | 96 | 1016.0 |
| 20260830111549 | 75 | 0 | 0.0 | 0.0 | 0.00 | 0.00 | 0.00 | 96 | 1015.9 |
| 20260830110040 | 75 | 0 | 0.0 | 0.0 | 0.00 | 0.00 | 0.00 | 96 | 1015.6 |
| 20260830104542 | 75 | 0 | 0.0 | 0.0 | 0.00 | 0.00 | 0.00 | 96 | 1015.6 |
| 20260830103040 | 75 | 0 | 0.0 | 0.0 | 0.00 | 0.00 | 0.00 | 96 | 1015.5 |
| 20260830101546 | 75 | 0 | 0.0 | 0.0 | 0.00 | 0.00 | 0.00 | 96 | 1015.3 |
| 20260830100046 | 75 | 0 | 0.0 | 0.0 | 0.00 | 0.00 | 0.00 | 95 | 1015.3 |
| 20260830094542 | 75 | 0 | 0.0 | 0.0 | 0.00 | 0.00 | 0.00 | 95 | 1015.3 |
| 20260830093038 | 75 | 0 | 0.0 | 0.0 | 0.00 | 0.00 | 0.00 | 95 | 1015.2 |
| 20260830091539 | 75 | 0 | 0.0 | 0.0 | 0.00 | 0.00 | 0.00 | 95 | 1015.2 |
| 20260830090058 | 76 | 0 | 0.0 | 0.0 | 0.00 | 0.00 | 0.00 | 95 | 1015.3 |
| 20260830084553 | 76 | 0 | 0.0 | 0.0 | 0.00 | 0.00 | 0.00 | 94 | 1015.2 |
| 20260830083054 | 76 | 0 | 0.0 | 0.0 | 0.00 | 0.00 | 0.00 | 94 | 1015.3 |
| 20260830081542 | 76 | 0 | 0.0 | 0.0 | 0.00 | 0.00 | 0.00 | 94 | 1015.2 |
| 20260830080039 | 77 | 0 | 0.0 | 0.0 | 0.00 | 0.00 | 0.00 | 93 | 1015.2 |
| 20260830074604 | 77 | 0 | 0.0 | 0.0 | 0.00 | 0.00 | 0.00 | 93 | 1015.2 |
| 20260830073045 | 77 | 0 | 0.0 | 2.0 | 0.00 | 0.00 | 0.00 | 92 | 1015.5 |